Iridium 14 - Orbit

View from above orbital plane
View from above orbital plane
View from above satellite
View from above satellite

Ground track
Ground track

The orbit data is extracted from the following two-line orbital elements,

1 25777U 99032A   13138.48859236  .00000523  00000-0  11688-3 0  4310
2 25777 086.5141 127.0700 0002504 103.6784 042.8675 14.54937191740032
Epoch (UTC): 18 May 2013 11:43:34
Eccentricity: 0.0002504
inclination: 86.5141°
perigee height: 708 km
apogee height: 711 km
right ascension of ascending node: 127.0700°
argument of perigee: 103.6784°
revolutions per day: 14.54937191
mean anomaly at epoch: 42.8675°
orbit number at epoch: 74003

The dashed part of the orbit path shows where the satellite is in the earth's shadow,  

Developed and maintained by Chris Peat, Heavens-Above GmbH. Please read the updated FAQ before sending e-mail. Imprint. DLR